Theta_e
319 318 316 316 317 319 321 320 320 320 320 320 319 320 319 320 320 318 318 318 318 315 309 307 306 306 307 305 306 306 306 307 308 310 311 309 308 309 312 310 311 314 313 313 313 311 311 311 312 312 317 317 315 317 314 316 322 329 337 330 323 323 324 321 320 319 319 321 316 313 314 318 318 312 310 308 311 315 313 318 317 318 322 320 320 322 326 333
318 318 316 317 319 320 321 320 320 320 319 319 319 319 319 319 319 318 317 317 317 314 309 307 306 306 306 306 306 306 306 308 311 312 311 308 309 309 310 311 312 315 313 311 312 311 312 312 311 314 323 320 314 317 317 314 321 335 334 326 330 331 323 319 320 318 316 317 317 314 313 315 317 313 311 312 316 316 314 317 316 322 323 321 322 323 327 332
318 317 317 319 320 320 320 319 319 319 319 319 318 319 318 318 318 316 315 315 315 312 308 307 306 306 306 306 306 306 307 309 312 313 310 307 309 310 310 312 312 315 314 311 312 311 312 313 311 316 324 321 316 318 320 316 318 328 327 326 337 334 321 316 318 318 315 315 319 315 310 312 313 312 311 313 317 315 318 319 315 320 323 327 325 321 327 331
317 317 318 319 320 319 319 319 318 319 318 318 318 318 318 318 317 316 315 314 313 311 309 307 306 306 306 306 307 308 307 308 311 311 308 308 310 311 312 313 313 314 313 310 311 311 311 312 312 318 322 320 318 319 319 317 316 319 323 329 330 323 318 315 315 316 314 313 318 316 311 312 311 310 312 314 317 316 320 319 316 319 323 335 328 320 328 330
317 318 319 319 319 318 318 318 318 318 318 318 317 317 317 317 316 316 315 314 313 311 310 308 307 306 306 306 308 309 307 307 309 312 311 308 310 312 313 315 314 314 312 310 311 311 311 312 313 320 322 318 318 319 317 314 314 316 318 321 320 316 315 314 313 313 312 312 315 315 314 313 310 311 313 315 316 319 319 315 317 316 319 337 331 323 328 329
318 318 319 318 318 318 318 318 318 318 318 317 317 317 317 317 315 315 315 314 312 310 310 309 307 306 306 307 309 309 307 308 310 314 315 310 311 314 315 316 315 312 311 312 310 310 312 313 314 318 320 319 318 318 316 311 313 320 318 314 316 315 314 313 313 313 311 314 316 315 313 312 312 312 312 314 315 317 313 310 311 308 312 325 325 324 329 330
318 318 318 317 316 317 317 317 318 317 317 317 317 316 316 315 315 314 314 313 310 309 310 309 307 306 307 307 310 310 311 312 311 314 316 313 313 315 316 316 313 311 312 311 309 311 314 315 316 317 319 319 316 315 314 312 314 321 319 314 315 313 312 312 311 311 311 316 315 311 311 312 315 313 309 312 315 314 308 303 302 304 312 321 324 326 329 330
318 317 317 316 315 316 317 317 317 316 316 316 316 315 315 315 315 314 313 311 309 309 309 308 307 306 307 308 312 314 313 314 312 314 316 315 315 314 314 313 312 312 313 311 310 312 313 315 315 314 317 316 315 315 312 313 316 319 318 315 314 311 312 311 310 312 313 314 311 310 312 313 313 310 310 315 317 312 307 308 311 313 320 326 328 328 327 329
318 317 316 315 314 316 316 317 317 316 315 315 315 314 314 315 314 313 311 310 309 308 308 308 306 307 309 309 312 314 311 313 313 314 315 314 312 311 312 311 311 312 312 311 310 311 312 314 314 313 314 311 312 315 313 315 317 318 317 315 314 312 312 311 312 315 313 312 310 312 314 313 310 308 312 317 316 310 310 321 328 328 333 332 329 327 326 329
317 316 315 314 314 315 316 316 316 315 314 314 314 314 314 315 314 313 310 309 308 307 307 307 307 308 309 308 308 309 310 313 314 314 313 312 311 310 312 311 312 312 311 310 309 310 312 312 311 311 312 311 312 313 313 314 314 316 318 316 315 313 313 313 313 314 313 312 312 314 315 313 309 310 315 315 310 307 317 334 330 332 343 335 328 326 325 327
316 315 314 313 314 315 315 315 316 315 314 314 314 314 314 314 314 312 309 308 307 307 307 307 308 310 310 307 307 307 311 315 314 313 312 311 311 311 312 311 312 312 310 310 309 309 311 309 307 308 311 311 311 312 311 312 312 315 317 315 315 314 313 313 314 314 314 312 311 315 315 312 310 312 318 313 307 308 319 337 333 334 338 329 327 326 323 324
316 315 315 313 314 314 314 315 315 314 314 314 314 314 314 314 313 310 308 307 307 306 306 307 309 310 309 307 307 308 313 316 314 313 311 312 312 311 312 312 312 312 311 311 310 310 310 309 308 311 312 311 312 313 312 311 313 315 316 315 316 317 314 311 314 314 314 313 312 314 312 313 314 315 319 311 307 311 317 329 336 337 332 325 326 325 323 322
315 315 314 313 313 314 314 315 314 313 315 314 314 314 314 314 311 309 308 307 306 306 307 307 309 310 309 309 308 310 314 316 314 312 311 312 312 313 313 312 312 313 312 311 311 310 310 309 310 312 311 313 314 310 311 313 313 314 314 317 317 317 314 311 313 315 313 312 311 312 310 315 318 315 313 309 308 312 317 322 325 329 327 323 323 324 324 321
315 315 314 313 312 313 314 315 313 313 314 314 313 314 314 313 311 309 308 307 306 306 307 308 310 310 308 309 310 312 316 315 313 312 311 312 313 314 313 313 314 314 313 312 312 311 310 309 310 311 310 313 312 308 315 318 316 314 311 318 319 315 317 313 313 316 312 310 309 308 310 315 317 313 307 308 311 311 315 320 318 319 321 319 318 319 322 320
315 314 313 312 312 313 314 314 313 313 314 313 313 314 313 313 310 308 307 307 306 307 308 309 310 309 307 308 310 313 316 314 313 312 312 313 314 313 313 314 314 314 313 312 312 310 310 310 313 315 310 310 310 312 320 320 322 320 310 317 317 312 318 316 314 317 314 311 310 308 312 315 315 314 308 307 312 313 314 320 319 319 318 317 316 314 317 316
315 314 313 312 313 313 314 313 313 313 313 312 313 313 313 312 309 308 308 308 307 308 309 311 310 308 307 309 310 314 314 313 313 312 312 313 313 313 312 312 312 313 313 312 312 310 310 313 313 313 312 312 313 317 319 317 324 323 314 319 319 314 316 314 313 314 315 314 313 310 313 317 316 314 310 307 311 313 315 321 322 323 320 317 314 311 312 311
314 313 313 312 313 313 313 312 312 312 312 312 313 312 311 310 308 307 309 309 309 309 310 312 309 306 307 308 311 315 314 313 312 312 314 313 313 313 311 312 310 310 311 310 312 311 311 313 310 311 315 314 315 318 317 314 318 319 318 320 318 317 316 314 315 312 311 313 314 313 312 317 317 314 315 312 310 312 315 320 321 321 320 318 315 312 311 309
314 313 312 312 313 313 312 312 311 311 312 312 312 311 310 311 309 309 312 311 310 309 310 311 307 308 309 308 312 314 312 313 313 313 313 312 312 312 312 312 309 309 313 312 312 313 314 314 314 316 317 314 314 316 315 315 316 317 318 316 314 316 313 315 318 312 311 313 314 316 314 316 317 315 316 313 310 313 315 316 316 316 316 315 314 314 312 310
314 313 312 312 312 312 312 311 310 311 311 311 312 312 312 311 311 312 312 310 309 308 310 310 307 312 311 310 313 313 312 313 313 313 312 312 311 311 312 311 312 314 314 315 313 314 318 318 316 317 316 314 314 314 317 320 320 320 320 319 319 321 317 316 318 312 310 314 316 317 316 317 317 317 317 313 311 313 314 314 314 313 313 313 312 313 312 313
314 313 312 312 312 312 311 310 310 311 311 312 314 313 311 311 312 313 312 311 310 307 310 311 309 313 311 312 314 313 312 312 312 313 312 312 311 312 312 310 315 319 316 318 315 312 318 319 316 317 315 314 314 313 316 318 318 319 319 321 321 320 317 315 315 312 310 314 317 317 318 318 317 316 317 312 310 311 313 315 315 315 314 314 314 314 313 312
313 313 312 312 311 311 310 310 310 311 311 313 314 311 309 310 310 312 313 313 308 304 309 310 309 312 311 312 313 310 312 312 312 314 313 312 312 312 313 313 315 316 315 319 317 312 316 319 317 318 315 313 314 315 316 316 317 319 318 318 317 316 317 314 313 313 310 312 317 316 317 317 317 317 316 312 310 313 315 316 318 317 314 313 314 315 313 310
313 312 312 311 311 310 310 310 310 311 311 313 312 310 312 310 307 310 311 310 307 304 310 310 310 314 311 311 311 309 313 316 315 315 313 312 312 312 314 315 315 315 314 315 316 314 316 318 316 314 312 312 313 316 319 319 322 324 319 316 316 316 317 313 312 312 310 312 318 319 318 318 317 316 316 313 313 314 313 314 316 316 315 312 312 312 310 309
313 312 312 311 310 310 310 310 311 311 312 313 310 309 313 308 306 309 309 310 308 307 311 311 313 319 314 312 312 310 312 315 315 316 313 312 313 314 314 315 315 316 315 314 316 317 318 318 314 310 310 312 314 315 318 320 321 322 319 318 317 316 316 314 313 313 310 311 316 319 318 317 317 316 316 311 308 309 309 309 310 309 311 311 310 309 309 310
313 312 312 311 310 310 310 310 311 311 311 312 310 309 311 308 307 309 309 311 310 309 310 309 313 321 316 312 312 312 311 313 314 315 312 312 314 313 314 315 315 315 314 314 316 316 317 312 306 307 310 314 314 313 317 318 316 317 321 328 325 318 318 316 313 313 313 310 311 314 314 321 326 323 321 314 307 310 309 308 311 309 307 307 307 308 308 308
313 312 312 311 310 310 309 310 311 311 311 310 310 309 310 309 306 308 310 310 310 310 308 307 312 317 314 311 312 312 312 312 313 313 311 312 314 312 312 313 313 314 314 314 315 316 315 306 304 309 311 315 315 314 319 320 317 315 320 330 330 323 321 318 315 316 318 314 310 310 313 327 334 328 326 320 316 319 312 311 316 314 309 308 309 310 307 306
313 312 311 310 310 310 310 311 311 310 311 309 310 310 311 310 307 308 312 311 310 309 308 309 310 311 312 312 313 313 313 313 311 311 311 311 312 311 312 312 311 314 314 313 313 315 311 306 309 313 313 315 315 314 316 317 319 315 315 322 324 324 324 322 319 317 319 314 308 309 315 321 325 324 325 320 319 321 315 314 317 313 311 312 312 312 309 308
313 312 311 310 310 310 310 311 310 309 311 311 309 310 311 310 307 308 312 311 311 311 310 308 307 309 312 311 312 312 313 314 311 311 312 311 309 310 313 314 311 313 313 313 314 313 309 308 311 314 314 316 315 315 314 314 319 317 313 317 323 324 325 325 322 320 319 313 311 318 319 314 316 318 320 316 316 319 318 318 317 312 315 317 316 315 313 312
313 311 311 310 310 311 310 310 310 309 311 310 309 311 312 310 307 309 312 310 310 311 309 308 307 310 312 309 311 312 312 314 315 313 310 309 308 311 316 317 315 316 312 312 314 312 312 315 314 314 316 316 315 316 314 314 319 318 310 313 319 321 325 327 325 324 319 311 315 323 314 311 319 322 321 315 313 318 320 319 315 313 316 318 318 317 315 315
313 311 311 310 310 311 311 310 309 309 310 309 309 311 311 309 307 310 312 308 308 309 307 308 309 311 312 310 312 314 313 314 316 314 309 308 308 309 314 314 315 316 311 314 318 313 312 315 314 314 314 316 316 314 313 318 320 314 307 311 315 317 322 324 324 324 319 315 322 321 310 310 318 324 325 315 311 317 319 316 314 316 319 318 318 315 313 315
312 311 310 310 310 311 312 310 309 309 309 310 311 311 310 309 308 308 307 307 310 310 307 308 310 313 313 310 312 314 315 316 315 314 313 312 310 309 310 309 313 318 317 320 322 314 310 310 311 313 313 314 313 310 311 316 315 310 312 316 316 320 324 324 325 321 316 322 326 316 311 311 311 321 325 314 312 315 314 314 314 318 321 319 317 314 313 315
312 311 310 310 311 311 312 311 310 309 309 311 312 310 308 311 312 308 306 310 313 309 307 309 310 313 313 312 313 313 316 317 314 315 315 313 312 312 311 310 315 321 320 320 319 314 312 311 312 313 312 313 314 312 309 308 310 315 322 321 317 322 324 324 327 319 315 327 323 311 310 311 310 317 318 314 315 313 312 316 315 316 320 319 317 315 313 315
312 311 310 310 311 311 313 313 311 309 311 312 310 307 308 311 310 309 308 309 311 310 310 311 310 313 313 312 314 315 317 318 314 315 317 315 312 313 313 314 319 318 316 317 317 315 316 315 313 311 310 313 318 318 311 310 315 319 320 321 320 321 318 322 328 319 317 324 314 307 310 310 311 315 312 313 316 314 314 317 315 314 317 318 317 315 314 315
312 311 310 310 311 311 313 314 310 310 313 310 307 309 314 312 308 309 310 308 309 310 311 312 311 312 313 312 314 315 316 316 315 315 316 316 314 312 313 316 319 319 317 318 318 316 317 318 315 313 313 312 315 318 315 315 317 315 315 319 322 321 315 317 320 314 315 317 310 307 310 311 314 314 313 314 311 311 313 313 314 313 313 315 314 315 316 315
312 311 310 311 311 311 314 314 311 313 313 307 306 310 315 312 309 310 309 309 311 311 312 314 313 312 313 314 314 315 315 313 314 315 314 315 314 314 315 313 314 322 323 319 318 317 317 318 317 316 315 313 313 316 319 318 315 313 315 315 319 325 323 320 320 319 320 317 310 307 310 318 319 310 312 315 311 311 312 311 313 312 311 313 313 316 317 316
312 310 310 311 311 312 314 314 313 314 311 306 306 310 310 310 311 311 308 310 314 314 312 313 313 313 314 315 313 313 316 316 313 315 315 315 314 314 315 311 313 323 322 315 315 316 315 315 316 314 312 313 314 315 317 317 315 315 313 312 315 322 323 317 314 317 318 314 312 310 313 321 318 307 310 312 310 311 310 311 314 315 315 315 315 316 316 315
311 310 311 311 312 313 314 314 315 314 309 306 308 310 309 310 314 314 309 311 314 312 312 313 314 315 313 314 315 312 314 317 315 315 315 315 314 314 313 312 313 316 316 315 318 317 314 313 314 313 312 313 314 313 314 316 316 314 312 314 317 316 318 315 306 306 309 311 313 312 314 319 314 309 315 314 312 312 310 311 313 313 316 317 316 316 314 314
312 311 311 311 312 313 314 315 317 312 307 306 308 310 310 309 313 315 311 311 313 311 312 314 313 314 313 314 316 314 314 317 315 315 316 314 314 315 313 313 313 312 313 316 318 318 318 315 313 315 314 311 309 312 314 314 313 315 316 316 312 309 314 317 312 313 313 314 319 315 313 318 314 312 318 315 312 314 313 313 312 311 315 318 317 316 314 313
312 312 312 312 312 312 314 316 315 310 307 307 309 313 315 311 312 318 315 310 311 312 313 314 312 313 313 313 315 313 314 316 314 315 316 313 315 316 313 313 313 311 313 314 312 315 321 317 312 312 315 313 310 314 315 311 309 314 317 313 312 314 316 313 311 318 315 312 323 322 311 310 312 316 321 314 312 316 313 311 310 312 317 319 319 316 314 313
312 312 313 313 313 313 315 315 311 309 308 308 309 311 317 318 315 317 315 309 311 314 312 314 314 312 312 313 314 313 313 314 313 314 315 314 315 315 312 313 314 311 311 312 311 312 318 320 314 311 313 314 314 314 316 315 311 311 310 307 313 321 321 314 311 316 315 310 318 322 316 315 315 316 321 316 313 315 312 310 311 314 318 318 319 319 317 317
311 314 314 312 313 314 314 312 310 310 309 310 310 308 314 321 317 314 313 312 313 314 313 317 315 312 313 313 312 313 313 314 313 313 314 313 312 312 311 312 313 312 310 312 314 313 314 317 316 313 312 314 318 317 316 316 313 310 310 309 313 315 314 314 312 313 318 317 318 317 320 330 325 313 315 316 312 312 312 312 312 314 316 318 319 320 319 318
310 314 313 310 313 313 312 312 312 312 311 312 314 312 312 316 316 315 315 313 312 313 315 319 315 314 316 314 312 313 314 314 314 313 314 312 311 312 311 311 312 311 310 310 314 317 314 313 317 317 315 316 319 314 311 314 314 311 311 311 313 313 313 315 313 312 313 314 317 315 315 328 326 312 312 315 312 312 312 312 313 314 316 318 319 319 319 317
311 314 310 309 311 311 312 315 314 314 315 314 313 312 313 315 316 316 316 314 315 315 315 316 318 318 317 312 312 314 314 315 314 314 316 314 312 313 311 311 311 310 311 312 312 316 317 318 321 320 317 317 314 309 307 312 314 312 312 313 313 313 315 318 317 314 309 306 310 312 311 322 324 312 311 313 309 309 308 308 314 315 315 318 318 315 316 317
310 311 308 308 310 310 313 317 314 314 316 313 311 311 312 316 318 315 314 313 315 316 315 317 317 315 314 312 313 314 312 313 313 313 315 313 311 313 313 312 311 310 311 312 311 313 315 319 320 318 318 318 314 310 309 312 313 312 314 315 314 313 316 320 321 318 314 309 311 312 311 321 327 316 312 313 309 309 308 308 313 315 316 318 316 314 316 316
306 306 307 308 308 309 313 316 314 314 313 310 313 313 311 314 316 315 315 317 317 317 319 320 314 312 316 317 314 313 312 313 313 312 315 314 311 312 313 312 310 311 312 312 313 312 313 317 318 317 318 319 317 314 314 315 314 316 320 316 314 315 315 314 314 314 315 315 316 316 315 322 328 319 314 313 311 311 310 309 311 314 317 318 315 315 317 316
305 306 307 307 307 309 312 313 313 314 312 311 314 315 313 313 314 314 317 320 319 318 319 318 313 317 323 318 311 312 313 314 316 313 313 315 312 312 314 313 310 311 314 317 316 312 314 318 316 316 316 316 317 316 317 319 315 316 322 318 313 314 313 312 314 313 315 316 314 316 317 318 319 316 313 312 312 311 309 309 310 312 315 318 317 315 315 314
305 307 307 307 307 309 308 308 311 313 313 312 313 314 315 315 313 313 316 318 317 317 318 317 316 320 321 314 310 313 312 314 317 314 313 314 312 313 314 312 311 313 317 319 316 315 320 319 313 313 315 312 313 315 316 321 319 317 320 318 313 312 312 316 320 316 314 314 312 315 316 313 312 314 313 313 315 313 310 310 311 312 314 317 317 315 312 310
305 306 306 307 308 308 306 306 309 311 312 312 313 312 314 316 315 314 314 314 315 317 318 317 317 318 316 312 312 313 312 312 314 314 314 315 314 313 311 311 311 314 317 315 313 317 321 317 312 314 314 312 315 319 319 319 318 317 318 316 314 312 312 315 317 314 314 314 312 314 314 311 312 315 315 314 315 313 312 312 312 312 314 316 315 313 311 307
303 304 302 304 307 307 307 306 307 309 311 312 313 312 313 315 316 315 314 313 314 316 317 317 318 318 316 313 312 314 313 312 313 315 315 316 317 314 312 311 310 312 315 312 311 317 318 314 315 315 312 314 318 321 320 317 316 318 318 315 313 312 312 314 314 313 314 314 312 313 313 311 311 314 315 314 313 313 312 311 311 311 314 316 314 314 312 308
301 302 300 301 305 305 306 306 304 307 310 311 313 313 312 314 314 315 315 315 316 317 317 318 320 320 317 314 313 317 315 312 313 317 315 315 317 317 315 315 313 312 314 312 312 315 315 316 318 314 310 313 316 318 318 317 317 317 317 315 313 312 312 312 313 313 313 313 312 314 316 314 311 313 314 312 310 311 313 313 312 312 316 317 315 315 312 308
301 302 300 301 303 303 304 304 304 307 308 309 311 312 312 313 313 315 315 316 318 318 316 317 319 319 317 316 316 318 317 315 315 317 315 315 317 317 317 319 317 313 313 312 311 310 312 318 318 313 312 314 314 315 316 316 316 316 316 314 312 312 312 311 312 313 312 313 312 312 315 314 311 314 314 311 309 310 311 314 312 312 317 318 316 314 311 308
298 298 299 303 304 303 304 304 304 307 308 308 309 310 311 312 312 314 315 313 317 319 316 316 318 317 316 316 317 317 317 318 320 318 316 315 317 318 317 318 318 315 313 313 313 312 311 316 316 312 313 315 312 312 313 312 312 313 314 314 313 312 312 312 312 312 312 313 312 312 313 312 310 313 314 313 312 310 310 313 313 313 317 318 316 314 311 307
298 297 299 303 304 302 304 305 305 307 308 308 308 309 310 311 312 314 314 313 314 316 316 317 317 317 318 318 318 318 316 316 317 315 313 315 318 320 317 316 315 315 314 314 316 317 315 316 318 314 314 315 310 309 313 313 312 312 313 314 313 312 312 311 311 312 312 313 313 312 312 311 311 312 312 313 313 311 310 311 313 314 316 316 314 312 309 306
Wind_Speed
27 26 27 28 27 27 25 23 21 21 19 19 20 18 18 17 17 18 18 18 17 16 19 20 19 19 17 16 15 13 12 10 8 9 10 10 14 14 8 9 12 8 8 11 11 11 7 5 6 8 8 4 3 1 2 3 3 4 3 3 1 2 3 5 7 6 4 1 4 4 4 7 3 2 1 1 2 2 1 3 2 1 3 4 3 1 8 18
26 25 26 27 27 24 22 22 21 20 20 19 19 19 18 17 16 17 17 16 16 16 18 19 18 18 17 15 14 12 10 8 5 8 14 14 11 14 12 10 14 11 9 12 14 15 9 4 6 7 5 3 2 2 2 2 3 3 3 3 3 5 4 5 7 6 2 1 4 4 2 4 5 4 2 2 2 3 1 3 4 4 4 4 4 3 13 20
26 26 26 26 25 23 22 22 22 20 20 20 19 19 18 17 17 17 16 17 17 17 17 18 17 17 16 15 13 11 9 3 1 8 16 17 12 12 12 12 15 13 10 12 15 15 12 11 11 8 5 3 1 2 3 2 2 2 3 2 4 6 3 3 5 5 3 3 6 5 2 1 3 3 2 3 1 1 3 5 1 4 7 5 3 6 16 19
27 27 26 26 24 23 23 22 21 21 20 20 19 18 17 17 17 16 17 17 17 17 17 17 17 17 16 14 12 11 7 3 2 8 14 17 14 11 12 13 16 14 11 12 13 12 13 14 10 5 5 3 3 3 3 1 0 2 3 3 5 2 1 2 4 4 3 4 6 6 5 1 3 3 2 5 4 2 5 7 7 9 8 6 4 9 16 18
29 28 26 26 24 23 22 21 21 21 20 19 19 18 18 18 17 16 16 16 16 17 17 17 17 16 16 14 13 12 9 3 4 7 11 16 15 12 12 13 15 15 13 13 13 13 14 12 6 5 5 3 2 3 2 1 2 2 1 3 3 2 1 2 3 3 2 3 5 7 6 4 3 2 2 7 5 5 5 5 8 9 7 7 8 13 15 16
29 27 26 26 24 22 21 21 21 21 20 19 18 18 19 19 17 16 15 15 16 17 17 17 17 16 16 13 13 13 8 1 3 2 10 16 16 14 14 14 14 15 14 15 16 15 12 6 5 4 3 3 2 3 2 1 2 2 1 0 2 2 1 1 2 2 3 6 6 6 4 3 4 1 1 6 8 6 3 3 5 6 5 8 10 15 14 14
30 28 27 27 25 22 21 22 22 21 20 19 18 17 18 17 15 14 14 15 16 17 17 17 17 16 14 13 13 7 2 3 3 1 10 16 17 15 15 15 14 16 16 17 15 11 8 6 5 5 5 4 3 3 3 1 4 4 2 0 2 1 1 3 2 2 4 6 5 3 2 3 5 3 2 4 10 5 2 3 3 3 7 11 11 14 15 16
30 28 27 26 25 22 21 22 21 20 19 18 17 16 16 15 14 14 15 16 17 18 17 18 17 16 14 13 10 3 2 4 1 4 11 15 16 15 16 15 15 17 17 18 14 10 8 8 6 4 4 2 4 4 3 3 5 3 3 2 3 1 2 2 1 2 3 4 2 4 4 1 4 3 1 7 10 4 5 3 2 4 6 8 9 12 14 15
29 28 27 26 26 23 22 22 20 19 18 17 17 16 15 15 14 14 15 16 17 18 17 18 17 16 15 10 6 3 4 3 2 6 10 13 14 15 15 14 17 18 16 14 13 13 8 5 6 6 5 3 4 5 4 4 0 3 4 3 4 1 3 1 2 3 2 1 2 5 2 3 2 1 3 8 7 5 3 2 3 5 6 6 7 10 12 13
30 27 26 26 27 25 23 22 20 19 19 18 17 16 15 15 14 14 15 16 16 18 18 18 17 17 15 8 6 3 4 2 5 7 10 12 11 15 15 14 17 18 15 10 10 13 7 7 7 6 7 3 4 4 3 5 3 4 6 6 5 2 3 1 2 3 2 1 2 5 3 3 1 1 4 6 4 4 0 2 1 3 6 7 6 7 11 12
29 27 26 26 28 27 24 23 21 19 18 18 17 16 16 14 13 13 15 15 16 17 18 18 19 19 14 7 6 4 3 3 8 8 10 11 10 14 13 13 16 17 15 8 10 11 5 12 12 6 3 2 4 3 0 3 4 5 7 6 5 4 2 4 4 3 3 1 1 5 4 2 2 1 6 4 5 3 2 1 2 2 4 5 5 5 8 10
30 28 26 26 29 27 25 24 21 19 17 17 17 15 14 13 12 14 15 15 15 16 17 18 19 18 10 5 3 4 3 5 8 9 11 10 10 12 9 12 14 14 14 9 10 10 6 15 15 7 1 4 5 2 2 3 5 4 4 5 5 6 3 4 2 3 2 2 2 3 2 3 2 5 8 3 5 3 3 1 3 3 4 3 4 4 6 9
30 27 25 26 28 27 26 25 22 19 17 17 16 14 13 12 13 14 15 15 16 17 17 18 19 16 8 2 3 4 5 7 9 9 11 10 10 10 9 11 12 10 11 9 11 10 8 15 13 7 3 6 4 2 4 4 4 3 4 4 2 5 3 4 2 3 1 1 4 1 1 6 6 9 7 3 4 3 1 3 4 3 4 3 4 4 5 8
29 26 25 27 28 27 25 25 23 19 17 17 15 14 12 11 14 15 15 15 16 17 16 18 18 12 5 2 3 5 6 7 9 10 11 11 10 10 9 10 10 8 8 8 11 10 11 15 13 9 3 4 4 2 5 6 4 3 3 2 2 2 4 5 3 2 2 0 4 3 2 6 7 8 5 4 3 1 3 5 4 4 4 4 4 4 6 8
28 26 26 27 27 27 25 25 23 18 18 17 14 13 12 12 14 15 15 15 15 17 16 18 16 9 3 1 2 6 8 7 9 11 11 13 12 9 8 9 8 8 9 9 12 12 14 16 12 7 1 2 5 6 4 4 4 3 2 0 2 3 5 6 2 2 2 1 5 5 3 6 7 8 5 4 2 4 4 5 5 5 5 5 4 5 6 7
28 27 27 27 28 27 25 25 22 19 18 16 14 13 12 12 14 15 15 14 15 17 16 14 13 7 3 1 3 7 7 6 10 11 12 14 11 8 11 12 10 11 12 12 15 14 11 11 6 3 3 3 5 7 4 3 3 3 2 3 2 3 3 4 1 2 1 1 3 2 3 3 3 5 5 4 3 4 2 6 6 6 6 5 5 5 6 7
28 28 27 28 29 27 25 24 22 20 17 16 15 14 12 12 14 14 13 14 15 16 14 12 10 5 2 3 4 5 5 7 11 12 13 13 10 12 14 10 8 12 13 12 12 8 6 6 1 1 4 3 3 6 5 1 2 2 2 3 2 3 3 2 2 3 4 2 2 2 2 6 5 6 7 5 1 0 4 6 6 6 5 5 5 5 6 7
29 27 27 28 28 26 24 23 22 20 18 18 15 14 15 15 16 16 16 18 16 12 8 7 7 3 2 4 4 4 5 10 14 12 13 13 12 15 12 6 7 10 10 6 4 3 4 4 2 2 4 3 3 5 5 5 5 5 3 3 2 2 3 3 3 2 3 2 3 1 3 9 10 9 9 6 2 4 7 6 6 7 6 6 5 6 6 7
29 27 27 27 26 25 24 22 21 20 20 19 17 18 18 16 15 13 13 14 10 6 4 4 5 4 4 5 3 5 9 13 13 10 11 13 13 12 9 8 7 7 6 3 2 1 1 3 3 4 3 3 6 6 7 7 7 9 6 5 5 3 4 5 4 4 1 2 3 5 5 8 9 10 10 6 2 3 7 6 6 7 7 7 6 6 7 7
28 27 27 26 25 24 23 22 21 22 22 23 24 20 13 10 8 4 3 3 3 3 2 4 4 3 1 1 4 11 12 10 6 6 11 13 13 12 7 4 5 6 4 4 2 1 3 4 3 5 7 8 7 5 6 5 7 9 6 4 4 4 3 4 3 5 1 3 4 4 4 8 9 11 12 7 1 4 8 8 8 8 7 7 7 7 8 9
28 27 26 25 25 23 22 23 22 23 24 27 25 12 5 7 6 5 5 1 1 2 1 2 3 3 2 3 8 11 7 4 3 3 10 11 11 10 2 2 5 4 1 3 3 2 4 4 6 6 7 7 6 7 8 7 7 6 6 5 2 3 3 2 2 3 2 2 3 2 3 9 10 11 12 7 3 6 9 9 9 9 8 7 7 9 9 7
28 27 26 24 23 23 23 22 22 24 25 25 16 2 3 6 5 12 11 4 1 1 3 0 3 4 2 4 7 4 3 5 3 1 5 7 5 6 2 3 7 3 1 2 4 3 2 4 6 5 6 8 6 5 8 8 7 5 4 5 2 2 2 3 2 3 3 1 3 3 4 9 10 10 11 9 7 8 7 7 8 7 8 8 7 8 7 7
28 27 26 23 22 23 22 22 22 24 24 21 11 3 4 7 12 18 11 5 1 1 4 1 2 3 2 2 5 2 4 5 4 3 3 5 3 3 5 5 6 5 2 4 6 6 4 5 4 5 8 10 6 4 8 8 5 4 4 5 2 2 2 2 2 2 3 2 1 2 3 7 7 6 9 8 6 7 6 6 8 7 8 10 8 6 6 8
28 27 24 22 23 22 21 23 22 21 21 18 13 8 7 13 20 19 7 4 2 1 1 1 2 4 2 2 5 3 4 2 4 5 3 5 4 2 5 5 6 6 3 6 7 7 4 3 2 7 7 9 7 4 6 7 2 1 3 6 3 4 4 3 2 0 2 3 2 2 4 6 4 4 7 5 4 5 5 5 6 6 6 8 8 7 7 8
29 26 24 23 23 22 23 23 19 19 18 14 13 11 10 16 20 13 6 3 2 2 1 1 0 3 3 3 3 3 3 2 1 2 2 5 6 3 3 2 4 4 4 6 7 5 3 2 4 8 5 6 8 4 5 7 3 2 3 6 6 7 6 3 2 3 3 3 3 3 2 5 5 4 7 4 6 7 5 5 6 6 5 5 6 7 7 6
30 26 25 24 23 26 23 15 14 18 14 11 15 13 12 18 17 9 5 4 0 1 2 2 1 4 6 2 1 4 4 1 2 2 2 4 3 4 4 1 2 3 5 6 5 2 1 1 3 7 7 6 7 5 6 6 6 2 4 5 7 7 8 7 5 4 2 1 2 3 2 4 6 6 6 4 7 10 7 5 6 6 5 4 4 5 6 6
31 27 26 24 27 30 18 8 16 18 8 10 18 15 13 18 14 5 5 5 2 3 4 1 1 5 7 1 0 5 4 2 1 3 2 2 1 3 4 4 2 2 3 4 2 1 3 3 4 6 6 6 6 5 6 7 7 3 3 6 9 8 8 7 6 4 2 2 2 3 3 1 5 6 6 5 6 9 8 6 7 6 5 5 5 5 5 5
31 29 27 25 30 28 12 10 20 17 7 9 18 16 14 17 10 4 6 3 2 3 4 1 1 5 4 2 4 4 2 1 4 1 3 3 1 3 4 5 6 5 1 4 4 2 3 5 6 7 6 4 5 4 5 9 6 3 2 6 7 7 7 6 6 4 1 1 2 4 3 1 5 6 5 5 5 7 8 7 7 6 6 6 5 6 6 5
31 30 26 25 31 24 8 8 18 19 12 12 18 18 17 15 7 5 4 2 1 2 1 2 4 4 1 2 4 3 1 2 2 2 3 3 2 4 4 5 7 8 3 3 6 2 1 5 7 7 5 5 3 2 1 5 4 3 5 7 6 6 6 5 5 3 3 2 4 4 2 1 4 6 4 3 2 6 7 6 6 5 5 5 5 6 7 6
32 30 26 28 31 23 9 4 14 22 16 11 17 20 17 10 4 5 3 3 3 1 0 2 3 3 5 5 2 3 2 2 0 1 2 1 4 6 3 3 6 8 4 6 5 0 2 1 1 3 3 5 5 3 2 3 5 7 6 7 7 6 5 4 3 4 4 2 5 4 2 1 2 6 4 2 3 5 3 2 3 5 5 5 5 6 6 6
32 29 28 31 30 23 11 2 12 21 13 12 19 18 12 5 3 5 5 3 3 1 0 2 2 5 10 11 4 0 3 2 0 4 3 1 3 4 2 2 4 5 3 4 3 3 3 3 0 0 1 4 6 6 4 3 5 6 4 5 5 4 4 4 4 3 2 4 6 3 2 1 2 5 3 4 5 5 4 3 2 6 6 5 5 5 5 5
31 28 30 31 29 25 12 0 11 18 13 15 17 10 6 4 1 5 4 2 3 3 4 5 5 7 13 12 7 5 4 2 1 4 5 3 3 3 3 4 4 3 1 3 1 2 2 1 0 1 0 4 6 6 4 4 4 5 5 6 5 2 2 2 3 1 3 5 3 2 1 2 5 7 6 8 8 7 7 7 5 6 6 5 6 6 5 4
29 28 30 29 26 25 12 3 12 16 15 17 10 2 5 5 7 7 5 3 2 3 4 5 3 6 12 11 7 5 4 2 3 3 2 4 4 4 2 2 5 5 3 5 4 2 0 3 1 2 1 2 5 6 3 2 1 4 6 6 5 3 2 2 3 2 3 4 3 3 2 2 4 6 8 11 10 6 6 7 6 6 5 6 6 5 5 4
28 27 29 27 24 23 12 7 13 15 16 13 4 3 6 6 8 7 6 4 1 2 3 4 6 6 8 7 6 7 4 1 4 4 2 4 5 5 4 3 3 5 4 4 3 5 4 3 3 4 2 2 4 4 5 6 4 3 3 5 5 5 5 4 4 3 4 2 2 3 2 3 3 3 6 8 7 4 4 6 6 4 5 6 5 4 3 4
27 28 29 25 22 21 13 9 12 15 14 8 2 6 9 8 7 5 7 5 2 2 3 3 8 8 5 1 0 6 4 1 4 4 3 5 6 8 7 6 6 4 5 5 3 2 4 3 3 2 2 3 4 3 3 7 3 1 2 5 3 4 5 4 3 5 4 0 1 2 3 4 3 5 6 3 4 5 3 4 4 3 4 3 2 4 4 5
27 27 26 24 21 20 15 10 12 15 11 5 4 8 8 7 5 4 6 5 4 7 8 4 4 6 4 2 1 5 1 3 6 4 3 5 4 7 7 6 7 7 6 6 3 2 3 2 3 3 2 2 2 2 1 2 3 2 2 3 4 3 8 6 2 0 3 1 2 1 3 5 3 5 6 3 2 5 3 2 3 3 3 2 5 5 5 4
27 23 19 19 20 20 15 11 13 14 7 4 8 10 5 2 3 3 4 6 6 10 11 5 2 5 6 3 4 8 3 3 5 4 4 4 3 6 7 4 5 9 7 4 2 3 5 2 3 2 2 1 1 2 4 3 3 5 3 5 3 3 5 5 2 3 3 2 4 1 4 5 1 3 6 4 3 7 5 3 3 1 2 5 6 6 4 3
23 18 12 15 20 19 15 12 13 11 3 3 11 11 2 2 2 3 3 6 8 7 8 7 3 3 7 6 6 8 7 5 6 5 4 4 4 7 10 6 4 9 8 3 2 2 5 3 3 2 2 2 3 3 3 3 3 3 4 3 4 3 2 2 2 1 1 2 4 3 3 3 4 4 4 2 7 8 6 5 4 5 6 7 6 6 4 2
19 11 5 12 20 18 16 15 12 7 3 6 12 9 2 1 1 1 2 5 7 6 5 6 2 2 5 7 6 7 7 7 8 7 4 5 5 5 11 8 3 7 8 4 4 2 4 4 1 1 1 1 3 1 5 1 4 3 2 2 2 3 4 2 2 4 3 3 3 3 3 3 6 6 5 8 9 8 7 5 5 7 8 8 7 7 5 4
10 4 3 12 20 20 19 15 8 4 6 7 8 5 1 1 1 2 3 2 4 3 4 5 3 4 4 3 5 6 5 5 9 7 4 6 5 4 8 8 5 7 5 4 4 2 3 3 3 1 3 1 2 2 6 7 3 2 3 4 2 2 2 2 0 2 3 4 3 2 3 5 6 5 7 9 6 6 7 7 7 8 8 8 8 7 6 5
3 3 2 7 19 23 21 12 4 5 6 2 2 3 1 1 3 1 2 1 2 1 3 5 5 5 6 4 4 5 4 4 6 6 3 5 6 4 6 8 9 9 6 4 3 3 2 3 5 3 0 3 3 3 3 5 4 5 5 6 6 4 4 3 2 1 2 3 4 4 3 7 6 4 6 7 5 5 6 7 8 8 8 8 7 6 6 5
2 4 2 2 18 25 16 6 3 3 2 2 3 3 1 2 3 2 1 2 2 1 2 4 3 3 5 5 4 6 7 5 5 6 4 6 8 6 4 5 9 11 9 5 3 3 3 4 5 2 3 4 4 3 1 2 2 3 3 4 5 4 5 6 5 4 2 2 2 3 1 7 6 4 5 5 5 5 5 5 7 8 8 7 6 5 3 2
2 3 4 4 16 20 10 6 5 2 1 3 1 2 1 2 2 2 2 1 2 2 2 1 2 2 3 3 4 7 9 5 6 8 5 5 6 4 4 8 11 10 8 5 3 3 2 4 4 1 2 3 4 3 2 1 1 2 3 3 5 3 3 5 5 4 4 3 3 3 2 6 6 3 4 5 5 4 4 6 7 7 6 5 5 3 0 1
2 2 4 6 11 14 6 6 9 6 3 1 3 2 1 1 2 3 4 3 1 2 3 2 2 2 2 4 5 8 10 6 5 8 4 3 4 1 3 11 13 10 7 5 6 6 3 3 5 3 1 3 4 2 2 3 2 4 4 3 4 4 6 4 2 4 2 5 7 5 4 7 5 4 3 2 2 2 4 6 6 6 6 6 5 2 1 2
2 2 2 5 5 6 2 3 5 5 5 4 4 4 1 2 1 2 4 3 1 3 4 2 1 3 2 3 4 5 9 5 3 5 3 2 2 2 1 6 9 8 4 2 5 7 5 4 5 6 6 5 5 6 4 3 3 2 2 5 7 7 9 5 3 4 3 5 6 6 6 6 5 5 5 2 3 4 4 6 5 5 5 5 5 3 1 3
1 2 1 2 3 2 1 1 2 3 5 6 4 3 4 3 1 0 3 2 2 2 3 1 2 4 3 4 5 5 9 3 3 4 6 4 3 2 2 2 4 3 0 3 8 7 3 2 5 8 10 11 10 8 4 6 6 5 6 9 9 9 9 7 5 4 6 3 3 7 7 4 5 5 5 4 4 6 6 7 7 6 6 5 4 2 1 3
1 1 2 1 1 1 2 2 1 2 3 6 5 4 5 4 1 1 1 0 2 3 3 2 2 3 4 7 6 5 8 4 2 3 5 4 2 1 2 2 2 1 2 3 7 5 4 4 7 10 12 10 7 6 5 7 9 11 10 10 10 10 10 9 8 9 6 6 6 11 8 8 8 6 7 8 7 6 8 10 10 8 6 5 3 3 3 3
1 1 1 1 0 1 1 1 3 3 2 4 4 4 6 6 5 4 1 2 0 1 2 1 2 4 8 10 7 5 6 5 3 3 3 3 3 2 2 2 1 1 2 2 2 3 5 6 7 8 11 9 3 4 6 8 7 8 10 12 12 12 12 13 15 13 9 7 14 12 10 12 10 7 10 11 9 11 11 10 7 5 5 5 5 5 5 5
1 2 1 2 1 1 2 4 7 4 1 2 3 4 8 10 8 4 1 2 1 2 1 3 4 5 6 7 6 6 7 7 6 5 4 3 4 3 3 1 0 1 2 4 1 1 4 5 5 8 9 9 4 3 5 7 6 5 9 12 13 14 16 17 17 16 12 14 17 7 9 13 10 9 11 11 9 8 5 4 4 5 5 6 7 7 6 6
1 1 1 2 2 1 2 4 8 6 2 2 3 3 7 11 11 4 1 4 4 2 2 4 5 4 5 5 5 5 7 7 6 8 8 7 4 3 4 4 3 1 1 4 3 2 3 3 3 6 5 8 5 4 4 5 5 5 6 8 11 14 16 16 18 16 12 13 14 4 3 11 7 7 9 8 6 5 3 5 8 7 6 7 8 7 7 7
2 1 1 3 2 1 2 3 5 5 3 3 3 3 5 11 12 7 1 2 5 6 5 7 6 4 3 4 4 4 6 4 5 8 10 9 7 5 3 4 7 7 4 4 3 3 4 2 2 5 5 6 2 4 5 5 5 1 3 7 12 13 14 15 15 11 10 12 12 5 7 12 5 8 9 7 6 7 7 8 8 7 7 8 9 9 8 8
2 2 1 3 2 1 2 2 3 4 3 3 4 3 3 5 6 8 4 2 2 5 6 9 9 5 3 5 5 6 7 5 5 5 5 4 4 4 2 3 8 9 8 6 3 2 5 5 2 4 7 4 3 3 7 7 4 3 6 12 17 16 14 12 8 7 9 11 9 9 12 11 5 10 10 7 6 9 10 10 9 9 9 8 9 10 10 9
Wind_Direction
182 184 189 192 192 191 187 183 183 184 185 186 187 186 187 185 183 186 189 195 201 201 196 196 199 202 202 203 202 202 206 209 213 208 208 231 230 221 228 206 191 185 172 174 174 162 143 141 155 136 124 91 15 355 41 27 53 60 77 99 143 179 207 186 178 194 167 186 195 202 197 153 173 223 152 116 47 24 291 297 301 297 251 234 256 258 155 159
181 182 187 189 186 182 181 181 181 182 183 184 184 184 186 184 184 185 185 192 196 197 192 191 197 197 199 200 198 198 200 203 213 229 227 231 230 218 225 210 187 186 176 177 179 167 150 163 161 123 84 52 0 10 55 8 53 84 108 112 204 202 208 196 176 182 158 119 157 166 197 166 176 172 136 186 300 8 177 275 331 324 269 230 268 208 163 163
180 184 187 185 179 179 179 179 179 181 181 182 182 182 184 184 184 183 182 188 193 194 190 190 194 193 195 194 191 194 186 166 266 253 240 226 220 212 215 210 192 188 189 188 187 181 173 167 152 118 62 61 12 34 74 16 37 138 119 114 236 215 219 230 187 188 193 153 138 147 157 161 190 163 155 185 193 3 205 235 240 266 252 212 242 173 166 168
180 182 184 179 175 177 178 177 179 179 178 179 179 180 182 182 182 180 181 187 190 191 188 190 192 190 191 186 186 181 148 63 285 233 228 215 208 204 204 207 196 189 196 192 186 189 172 152 134 95 72 67 346 31 94 3 111 141 122 171 233 209 178 246 210 207 196 149 138 136 124 159 215 160 164 156 146 273 243 227 205 221 224 193 194 174 170 172
180 178 177 175 172 173 175 176 177 176 175 176 176 179 181 183 182 176 180 186 188 188 187 189 190 188 186 180 181 165 123 60 261 214 203 199 197 197 194 197 194 188 192 184 173 167 155 142 106 63 68 82 21 58 106 297 92 118 153 183 200 155 125 260 243 212 161 110 112 126 143 178 164 130 157 159 178 236 239 232 218 222 209 176 173 172 173 176
177 174 172 173 171 172 173 174 176 174 173 174 173 180 186 189 184 175 179 185 186 186 185 187 186 183 181 178 176 162 137 172 289 223 191 185 188 194 187 190 188 182 183 173 158 148 142 123 90 97 72 78 127 120 153 278 58 133 256 111 186 195 118 297 280 216 144 118 132 150 172 138 120 198 167 176 214 220 218 244 246 248 200 165 159 166 172 179
175 173 170 171 173 172 173 174 175 172 172 172 172 182 189 189 182 176 179 181 185 184 185 186 182 179 175 169 166 150 157 252 325 215 184 172 180 189 182 186 182 177 178 165 151 140 134 110 113 140 93 86 160 140 150 94 48 105 162 156 167 190 334 302 280 197 136 136 171 170 126 116 155 200 87 221 237 223 253 292 284 250 168 157 155 171 181 185
173 173 171 173 176 173 172 174 173 171 171 172 174 181 183 179 176 176 177 179 182 183 184 182 177 173 167 160 151 108 275 256 324 167 178 168 173 179 176 179 176 177 176 169 160 146 136 126 144 155 94 134 161 127 148 96 45 102 162 168 130 117 305 311 30 113 123 132 160 117 111 200 195 171 105 248 251 263 286 322 79 126 142 164 168 181 189 190
172 173 174 176 178 174 173 174 171 171 173 174 176 176 173 172 173 174 176 178 180 182 181 177 174 166 164 161 126 129 226 240 188 169 176 172 170 172 174 176 177 178 174 175 171 152 145 148 175 173 139 174 137 123 162 132 219 179 143 139 121 46 318 345 76 58 82 99 88 117 93 316 219 156 274 252 261 292 295 39 98 132 149 193 186 189 192 194
173 173 173 176 177 176 175 174 171 171 175 176 174 172 169 170 171 171 173 177 179 180 177 173 170 160 166 164 108 164 229 198 182 176 173 176 175 175 178 180 180 180 172 170 174 159 157 175 176 159 133 126 122 122 157 151 177 143 118 111 96 38 323 5 100 22 5 37 39 148 156 304 293 341 265 255 293 308 303 71 7 160 178 204 202 205 201 202
173 173 172 175 177 176 176 175 173 172 174 173 170 168 167 166 166 167 170 175 177 176 175 172 165 163 169 150 125 195 222 165 182 174 170 176 183 185 185 185 182 182 173 159 180 177 164 169 156 123 132 136 122 98 142 151 117 109 124 110 31 1 14 34 77 9 348 74 16 140 144 309 13 265 233 245 318 324 145 116 326 205 220 221 216 225 217 222
174 173 173 177 177 175 175 176 175 172 171 169 167 165 163 163 161 165 169 171 176 175 174 171 165 165 158 116 151 202 175 167 178 169 172 173 184 192 187 183 182 185 181 164 184 184 154 163 142 91 153 146 126 119 155 122 93 102 117 120 351 357 35 10 39 318 338 115 288 128 112 292 220 234 242 266 330 7 103 261 298 241 258 261 240 244 230 232
174 174 174 178 178 175 173 176 176 170 167 168 167 163 160 160 159 164 168 170 174 172 172 170 165 163 146 114 201 192 165 169 173 169 173 171 180 188 177 177 178 183 188 175 176 172 159 165 138 97 116 112 122 173 125 69 68 112 70 108 38 10 354 333 358 313 344 131 297 180 225 273 247 255 263 310 334 14 44 265 281 273 269 272 260 255 243 236
174 173 175 177 177 175 173 176 176 166 165 170 166 163 159 156 160 164 167 170 171 169 170 167 164 160 147 174 189 173 172 169 172 170 169 173 168 163 162 170 173 174 183 172 159 152 153 150 120 100 93 89 132 119 64 27 31 105 74 72 82 143 258 306 348 345 141 171 343 117 209 270 264 268 275 329 335 170 265 275 280 286 276 266 260 255 253 242
175 174 175 175 175 175 174 177 174 163 168 169 161 163 161 156 162 163 164 168 166 165 163 161 164 155 126 245 186 162 169 165 172 173 170 171 160 149 155 158 155 151 155 150 137 135 140 131 103 94 73 21 107 94 51 22 23 50 115 272 359 168 251 311 356 51 143 282 18 99 220 274 269 266 270 331 31 149 232 278 287 280 270 262 257 249 250 253
175 174 174 174 175 174 174 175 169 164 170 165 159 166 159 154 160 158 160 160 156 158 154 157 168 156 118 171 151 152 170 176 173 172 169 171 168 154 143 135 121 121 128 124 122 123 115 103 82 101 111 69 97 101 77 45 8 352 110 179 214 168 248 316 358 7 45 258 359 81 223 268 288 277 278 324 52 98 264 280 281 273 269 261 250 246 247 257
174 174 175 174 175 175 173 172 167 166 167 161 163 164 149 147 151 147 147 144 142 147 149 160 169 152 108 130 141 165 178 171 168 166 166 172 173 154 137 117 102 111 111 110 117 106 60 59 72 145 73 73 111 103 94 76 244 266 60 124 198 176 191 286 270 321 31 118 248 10 251 246 269 284 286 295 302 325 282 271 269 266 265 258 249 250 246 250
174 174 174 175 176 176 175 173 170 166 161 160 158 146 135 132 133 133 131 128 124 122 132 159 156 151 217 175 162 178 155 151 157 156 159 163 161 154 141 117 118 112 96 84 88 56 25 27 70 111 55 59 131 121 145 198 193 175 149 133 180 205 204 247 242 265 25 90 208 274 267 260 273 282 282 281 216 231 260 260 265 267 261 259 252 247 245 246
174 173 172 175 176 176 176 174 170 164 159 155 141 127 121 112 112 123 130 127 120 115 146 181 160 162 205 194 152 118 128 141 145 144 146 150 151 143 121 115 117 102 99 90 48 49 74 57 69 127 138 162 180 172 178 193 162 155 162 145 155 180 228 243 248 269 358 120 223 227 239 267 278 282 282 278 187 229 269 276 270 266 261 258 250 243 243 242
173 171 170 172 174 174 174 171 166 164 160 151 140 129 120 116 109 121 146 129 136 145 200 206 161 132 110 147 128 121 123 126 127 140 147 152 148 125 87 76 73 57 101 137 129 95 91 118 163 179 180 183 178 153 142 148 130 132 129 115 148 176 232 245 256 297 1 148 248 240 253 276 271 273 275 273 256 260 270 273 268 263 257 254 250 249 243 238
171 169 169 170 172 173 172 168 165 164 160 154 151 142 148 163 148 165 163 74 218 118 357 252 121 96 83 125 144 138 120 89 60 119 150 160 152 137 76 8 96 65 330 153 131 75 83 148 204 208 184 162 144 127 113 99 86 98 127 135 156 196 220 244 229 306 356 172 264 355 312 273 263 267 270 271 263 249 246 246 256 257 253 253 249 252 252 253
169 167 167 167 168 169 168 167 165 165 163 162 168 201 208 182 140 151 145 97 229 75 48 309 75 59 38 128 161 162 79 91 86 57 166 157 147 158 156 71 122 142 286 126 109 90 116 206 222 201 149 108 88 97 98 88 87 86 108 132 164 220 226 280 281 328 12 164 268 350 331 277 265 263 263 259 250 248 241 233 249 259 259 258 248 252 266 277
168 166 166 164 163 164 163 163 165 169 171 173 187 230 182 160 134 140 130 83 149 23 51 107 107 97 44 129 182 154 78 123 157 227 210 147 125 163 133 103 126 133 146 160 142 143 177 251 235 169 138 112 82 71 95 87 81 90 108 129 178 238 183 221 257 322 17 84 271 311 307 284 281 284 274 264 258 269 275 257 253 252 252 261 265 270 271 269
166 164 165 162 159 160 160 161 167 177 180 184 201 206 159 146 145 141 111 70 121 353 62 142 155 155 123 149 176 135 97 123 157 181 200 147 133 140 134 129 129 128 171 170 144 150 185 277 177 135 130 123 112 98 118 113 76 7 152 145 165 195 183 201 211 328 11 36 36 14 322 294 309 322 286 292 328 296 298 303 279 261 255 270 286 281 259 254
165 163 163 161 158 158 157 159 171 182 183 192 207 198 155 150 155 145 98 78 103 339 266 157 83 187 159 121 144 145 123 87 114 200 192 146 138 131 128 124 132 156 177 139 125 152 204 286 135 131 120 119 127 154 175 150 130 287 220 178 173 171 163 160 117 86 45 8 1 22 341 289 317 316 271 304 344 308 307 319 293 293 299 291 286 281 274 268
165 164 162 161 159 155 153 159 180 178 175 206 201 178 160 162 162 151 95 69 186 237 169 157 112 175 167 112 105 132 118 130 311 358 105 137 136 118 128 93 54 159 168 133 126 160 175 12 94 129 134 126 134 180 206 157 130 208 231 168 146 134 131 139 131 101 100 218 329 50 146 258 316 309 276 311 325 301 301 300 297 312 318 313 295 290 296 290
166 165 163 162 160 156 153 156 171 168 169 212 192 170 168 168 161 147 78 53 256 179 132 167 325 161 166 260 113 135 152 210 110 52 52 106 358 52 123 165 109 144 171 125 143 218 122 95 80 104 115 123 143 194 207 151 132 208 229 127 129 129 136 146 121 102 177 214 331 21 110 214 301 280 276 322 319 301 305 308 319 331 328 333 325 311 314 303
168 166 164 163 161 160 157 148 161 173 184 180 174 167 165 162 153 107 87 96 224 140 128 213 115 137 150 9 55 106 184 197 119 169 339 52 38 37 102 176 150 136 153 132 177 244 108 149 168 136 121 151 178 224 199 144 126 239 205 127 133 128 128 126 100 93 14 14 293 328 47 163 269 276 300 353 333 295 299 306 316 327 332 338 338 339 341 334
168 165 163 161 162 166 168 155 171 186 187 163 164 166 156 153 146 80 86 160 165 84 116 142 119 125 119 59 51 45 41 41 104 225 334 55 56 46 112 180 135 115 58 98 161 207 92 180 184 145 143 183 183 318 202 139 129 186 147 105 83 77 80 81 88 98 45 36 233 271 18 157 262 285 308 10 313 270 283 293 290 294 306 316 326 339 345 347
167 163 162 159 164 174 173 175 191 188 188 174 165 160 147 144 134 104 149 206 141 92 19 138 155 156 140 127 46 2 66 50 9 55 15 51 27 30 107 151 103 106 41 43 95 223 328 258 180 121 150 171 137 72 52 105 130 142 124 84 66 41 36 50 53 78 66 315 250 257 327 77 269 280 265 219 220 228 251 287 290 305 319 321 326 341 348 350
166 163 163 162 169 177 166 197 205 190 194 181 164 156 138 101 66 137 186 209 122 97 80 153 177 145 152 158 157 107 86 39 336 120 123 161 39 45 120 114 74 77 46 49 45 338 7 43 44 88 122 127 104 71 46 56 100 108 102 98 87 14 12 28 1 40 107 253 260 272 314 126 216 259 246 233 242 225 197 186 256 306 319 326 335 345 345 341
166 164 166 168 173 176 165 245 196 187 190 175 164 159 129 95 151 183 192 167 145 189 181 181 201 172 168 166 154 155 127 79 182 146 144 145 140 162 163 171 152 94 129 176 141 3 43 76 264 27 143 149 118 84 43 354 22 75 108 114 103 24 17 5 312 330 208 244 267 282 242 182 234 251 251 253 255 239 216 210 234 273 292 313 333 342 337 336
168 166 169 173 175 175 170 154 178 182 181 172 165 103 94 131 199 200 186 176 182 191 153 149 174 167 163 160 158 156 119 137 184 154 137 134 156 203 256 189 148 117 177 175 133 121 15 308 297 114 234 210 145 128 132 226 207 130 142 136 132 125 113 226 262 284 250 253 281 274 242 245 265 262 248 245 246 233 218 223 237 251 267 290 310 317 317 328
170 168 171 175 174 177 176 158 174 181 173 171 172 104 122 175 202 179 172 203 230 73 95 120 120 136 158 159 176 168 118 143 177 126 109 132 148 197 231 225 162 98 109 141 148 162 169 259 227 167 206 192 168 175 154 143 140 167 162 130 145 156 152 196 212 201 227 256 297 284 245 192 207 251 234 230 253 260 235 250 256 257 263 273 296 319 332 354
171 170 173 175 176 183 182 161 173 179 168 164 164 158 171 199 204 177 172 190 195 88 60 102 123 138 168 42 253 186 135 147 177 121 134 166 173 191 193 201 197 137 123 155 198 170 161 237 264 281 269 157 167 231 120 106 112 227 117 103 159 183 136 137 176 174 172 142 291 258 238 216 216 270 265 249 287 281 269 276 254 265 297 301 25 39 34 26
169 169 172 175 181 189 184 165 170 177 171 148 155 187 200 201 195 188 167 149 146 133 108 91 111 141 170 37 287 219 106 109 162 149 176 192 202 198 192 200 193 179 165 156 162 168 158 263 321 343 351 80 171 226 87 105 161 156 124 162 208 163 114 115 173 73 84 164 256 223 245 286 316 290 299 1 292 268 307 314 215 242 319 74 94 80 70 60
166 166 168 175 186 189 181 170 169 173 171 150 182 200 205 166 164 160 141 126 138 140 128 136 175 159 168 170 191 200 177 120 156 168 180 188 222 201 198 225 194 188 195 154 156 198 155 126 341 26 74 8 271 128 64 39 112 123 173 199 178 114 98 111 138 20 43 220 274 271 229 282 330 267 321 12 223 251 278 261 212 181 105 123 115 104 99 80
163 160 161 177 187 186 176 168 163 161 139 165 200 211 189 112 164 146 136 136 138 139 142 159 173 155 172 182 184 185 178 164 169 177 170 183 238 203 182 200 199 189 198 149 147 204 128 120 330 15 133 306 345 88 94 24 46 118 180 169 112 136 166 103 137 155 121 222 277 303 273 265 204 219 303 267 212 225 233 219 187 154 145 141 129 121 117 103
157 154 159 181 185 183 172 162 150 142 147 186 205 217 186 119 208 215 207 150 131 129 156 173 163 126 175 177 164 171 184 176 167 175 179 185 234 216 180 185 195 185 187 148 153 183 115 128 231 324 251 290 12 118 179 180 19 34 106 114 78 130 165 162 151 163 174 193 244 308 322 262 225 214 216 225 220 200 188 182 179 176 163 151 143 140 149 169
157 150 143 175 180 173 159 148 130 149 191 198 200 202 153 114 213 256 258 170 127 127 166 180 164 146 162 163 152 166 181 174 168 182 204 185 202 236 197 185 168 167 159 100 117 152 101 126 170 313 332 197 177 222 194 174 150 115 131 162 173 73 119 167 88 118 141 160 182 247 297 266 249 208 202 224 226 191 180 167 172 184 172 157 152 155 162 160
163 143 120 171 173 160 145 137 145 184 189 183 158 168 196 162 146 197 294 79 113 139 148 148 146 149 153 150 160 167 153 152 175 185 208 196 198 227 214 184 160 152 134 97 130 162 142 136 148 145 206 193 219 263 205 181 172 164 173 183 176 144 123 149 249 236 118 135 169 170 253 269 256 198 208 229 215 207 209 175 166 179 177 166 165 179 175 146
133 141 98 155 167 158 143 147 185 150 150 170 158 153 134 115 126 155 199 66 82 86 93 107 118 137 155 157 157 160 153 156 183 185 204 213 204 212 216 161 143 152 149 138 163 162 125 106 115 149 209 210 255 293 198 203 190 156 198 190 165 158 137 150 207 219 122 108 140 118 253 273 262 206 215 236 226 228 229 193 175 176 180 180 183 197 191 154
73 125 64 85 166 168 152 164 182 135 169 209 171 68 61 98 112 146 183 137 96 104 73 89 143 143 160 160 144 161 169 169 188 194 206 215 208 224 195 145 138 151 152 138 156 154 121 114 108 57 306 316 320 336 36 15 89 171 233 190 160 184 144 144 181 165 134 169 150 86 280 270 272 251 232 239 241 244 236 207 188 176 182 197 195 189 96 64
54 115 46 64 161 177 170 176 189 186 175 128 77 88 18 67 119 144 178 188 156 136 126 135 165 146 155 151 139 168 182 179 198 206 203 189 201 293 156 159 155 158 169 179 176 173 183 159 126 110 54 5 346 338 331 309 233 203 222 185 167 142 97 96 128 107 130 202 160 142 234 256 273 304 318 268 202 214 234 220 201 184 184 197 197 195 355 17
60 101 16 35 118 159 170 178 178 165 151 122 120 144 122 54 89 166 159 160 170 151 142 156 157 102 114 141 115 157 186 174 171 198 194 191 218 8 40 188 180 171 187 200 154 157 178 176 151 153 166 181 196 202 218 225 189 199 208 182 182 160 142 152 132 115 216 225 157 167 231 257 282 315 329 335 113 126 198 215 217 211 201 200 197 188 82 58
60 94 82 24 45 64 47 36 94 131 153 152 146 166 157 139 278 303 122 142 201 143 101 93 136 93 91 150 130 163 198 185 78 169 185 187 205 337 341 223 190 181 137 123 143 144 139 181 186 186 195 200 200 201 177 128 143 191 195 181 183 177 166 149 111 161 203 165 161 221 232 228 247 270 281 249 181 165 181 190 200 208 209 216 212 193 89 72
43 73 118 112 49 65 51 10 61 94 149 169 170 177 166 150 133 96 80 171 190 143 74 56 150 142 160 165 151 175 196 185 88 161 175 169 174 304 331 92 126 330 7 136 158 129 102 199 205 199 215 219 193 187 169 141 169 193 183 175 179 174 163 157 183 206 164 115 228 237 216 214 231 230 230 227 204 191 195 195 194 192 195 201 177 123 101 101
45 65 43 13 48 143 125 177 161 104 113 176 167 154 163 166 165 169 162 16 53 154 103 98 226 197 176 169 158 160 170 170 189 187 151 140 149 118 24 48 121 287 29 111 172 112 131 204 209 191 220 233 169 152 177 164 173 181 171 174 175 167 170 183 208 211 149 165 237 228 183 211 225 200 212 216 197 197 200 195 182 165 174 167 136 132 140 142
49 87 8 355 34 99 84 125 143 136 134 172 164 162 173 180 184 184 135 87 39 284 171 176 215 202 183 177 158 157 171 174 199 209 171 149 156 133 110 111 249 304 91 122 175 141 151 203 197 174 214 238 205 165 180 165 156 163 176 180 171 172 184 193 211 216 189 208 237 203 166 222 223 187 208 215 199 197 180 152 159 164 174 161 147 159 164 155
98 121 99 62 68 59 64 117 140 149 168 187 199 197 182 184 186 185 157 150 167 224 211 187 189 160 161 176 150 167 192 174 183 200 174 152 170 175 173 182 168 98 119 151 169 203 196 211 169 147 202 244 217 174 178 159 152 171 185 184 175 180 194 201 214 218 207 224 242 204 197 253 235 179 213 224 194 174 134 168 194 192 182 169 164 170 164 157
85 59 103 113 101 115 133 130 137 149 170 191 202 197 192 197 187 161 158 199 169 175 179 169 163 129 115 147 138 170 197 160 159 189 176 165 179 182 190 191 162 149 169 177 158 161 183 201 85 119 185 246 241 167 162 101 78 105 194 190 188 190 199 207 214 210 195 214 232 228 250 258 218 166 208 222 184 183 192 199 205 206 199 182 173 174 168 164
88 29 50 102 105 138 150 137 146 161 175 183 190 184 188 206 183 155 170 238 164 173 173 162 159 140 129 171 183 189 185 152 131 152 150 136 127 111 107 154 152 153 163 164 148 151 160 156 125 151 184 252 327 133 132 92 72 261 235 203 195 198 204 208 220 221 202 199 204 212 233 241 184 165 199 209 194 203 208 202 201 205 202 189 179 175 168 167